DW4509 Weather Reports


Display with metric or nautical units.
time (UTC)temp
F
wind
direction
speed
MPH
gust
MPH
rain 1hr
in
rain 24hr
in
rain mn
in
humidity
%
barometer
mb
20260505035530 44 250 0.0 0.0 0.00 0.00 0.00 89 1014.8
20260505034504 44 289 0.0 0.0 0.00 0.00 0.00 90 1014.8
20260505033511 44 289 0.0 0.0 0.00 0.00 0.00 90 1014.8
20260505032439 43 250 0.0 0.0 0.00 0.00 0.00 90 1014.9
20260505031436 43 250 0.0 0.0 0.00 0.00 0.00 90 1014.9
20260505030418 43 251 0.0 0.0 0.00 0.00 0.00 90 1015.0
20260505024233 43 250 0.0 0.0 0.00 0.00 0.00 90 1015.0
20260505023256 44 250 0.0 0.0 0.00 0.00 0.00 90 1015.0
20260505021116 45 250 0.0 0.0 0.00 0.00 0.00 90 1015.1
20260505013854 46 248 0.0 0.0 0.00 0.00 0.00 90 1015.3
20260505012824 47 231 0.0 0.0 0.00 0.00 0.00 91 1015.4
20260505011831 47 231 0.0 0.0 0.00 0.00 0.00 91 1015.4
20260505004527 48 231 0.0 0.0 0.00 0.01 0.00 90 1015.5
20260505002405 49 231 0.0 0.0 0.00 0.01 0.00 90 1015.6
20260505001408 49 269 0.0 0.0 0.00 0.01 0.00 90 1015.7
20260505000428 49 250 0.0 0.0 0.00 0.01 0.00 90 1015.7
20260504235408 49 275 0.0 0.0 0.00 0.01 0.00 91 1015.8
20260504234401 49 333 0.0 0.0 0.00 0.01 0.00 91 1015.8
20260504233347 49 333 0.0 0.0 0.00 0.01 0.00 90 1015.9
20260504232313 49 333 0.0 0.0 0.00 0.01 0.00 90 1016.0
20260504231246 49 333 0.0 0.0 0.00 0.01 0.00 90 1015.9
20260504230212 49 333 0.0 0.0 0.00 0.01 0.00 90 1016.0
20260504225143 49 333 0.0 0.0 0.00 0.01 0.01 90 1016.0
20260504224124 49 333 0.0 0.0 0.00 0.01 0.01 90 1016.0
20260504223132 49 333 0.0 0.0 0.00 0.02 0.01 90 1016.1
20260504222130 49 333 0.0 0.0 0.00 0.02 0.01 90 1016.2
20260504220011 49 333 0.0 0.0 0.00 0.02 0.01 90 1016.2
20260504215033 49 333 0.0 0.0 0.00 0.02 0.01 89 1016.2
20260504214009 49 333 0.0 0.0 0.00 0.02 0.01 89 1016.3
20260504212953 49 333 0.0 0.0 0.00 0.02 0.01 89 1016.4
20260504212003 49 333 0.0 0.0 0.00 0.02 0.01 88 1016.3
20260504210947 49 333 0.0 0.0 0.00 0.02 0.01 88 1016.3
20260504210011 50 333 0.0 0.0 0.00 0.02 0.01 88 1016.3
20260504204948 50 333 0.0 0.0 0.00 0.02 0.01 88 1016.4
20260504204000 50 333 0.0 0.0 0.00 0.02 0.01 88 1016.5
20260504202946 50 333 0.0 0.0 0.00 0.02 0.01 87 1016.5
20260504202002 50 333 0.0 0.0 0.00 0.02 0.01 87 1016.4
20260504201020 50 333 0.0 0.0 0.00 0.02 0.01 87 1016.4
20260504200004 50 333 0.0 0.0 0.00 0.02 0.01 86 1016.4
20260504195019 50 333 0.0 0.0 0.00 0.02 0.01 86 1016.3
20260504191746 51 333 0.0 0.0 0.00 0.02 0.01 84 1016.1
20260504190808 52 333 0.0 0.0 0.00 0.02 0.01 83 1016.1
20260504185750 53 333 0.0 0.0 0.00 0.02 0.01 81 1016.0
20260504184745 54 333 0.0 0.0 0.00 0.02 0.01 80 1016.0
20260504183723 55 333 0.0 0.0 0.00 0.02 0.01 78 1016.0
20260504181557 55 333 0.0 0.0 0.00 0.02 0.01 79 1016.0
20260504180543 56 333 0.0 0.0 0.00 0.02 0.01 76 1016.0
20260504175534 57 333 0.0 0.0 0.00 0.02 0.01 75 1016.1
20260504174520 57 334 0.0 0.0 0.00 0.02 0.01 77 1016.0
20260504173517 56 236 0.0 0.0 0.00 0.02 0.01 82 1016.2
20260504172534 55 236 0.0 0.0 0.00 0.02 0.01 80 1016.2
20260504171512 55 236 0.0 0.0 0.00 0.02 0.01 81 1016.3
20260504170451 55 236 0.0 0.0 0.00 0.02 0.01 79 1016.3
20260504160432 55 224 0.0 0.0 0.00 0.06 0.01 78 1016.4
20260504150346 55 274 0.0 0.0 0.00 0.06 0.01 77 1016.6
20260504140121 56 68 0.0 0.0 0.00 0.06 0.01 76 1016.8
20260504110503 51 1 0.0 2.0 0.00 0.07 0.01 81 1017.0
20260504081356 48 4 0.0 3.0 0.00 0.07 0.01 89 1016.6
20260504080329 48 2 0.0 2.0 0.00 0.07 0.01 90 1016.6
20260504050354 47 334 0.0 1.0 0.00 0.07 0.01 91 1015.1
20260504045353 47 351 0.0 1.0 0.00 0.07 0.01 91 1015.0
20260504044342 47 79 0.0 0.0 0.00 0.07 0.01 91 1014.9
20260504043405 47 84 0.0 4.0 0.00 0.07 0.01 91 1014.8
20260504041217 47 342 0.0 3.0 0.00 0.07 0.01 91 1014.9
20260504040222 48 357 0.0 4.0 0.00 0.07 0.01 91 1014.8